Temperature
11 12 12 13 14 14 14 15 14 15 16 16 16 17 17 17 17 16 17 17 17 17 18 19 19 19 19 19 20 20 19 19 19 18 18 18 18 18 18 18 17 16 15 15
12 12 13 14 14 14 14 14 14 15 18 18 17 17 17 17 16 17 17 17 17 17 18 18 19 19 19 19 19 19 19 19 19 18 18 17 17 17 16 16 15 15 15 14
12 13 14 14 14 14 14 13 14 16 16 17 17 16 17 16 16 16 17 17 17 17 17 17 18 18 18 19 19 19 18 18 18 18 17 17 16 16 15 15 15 14 14 13
13 14 14 14 14 14 14 15 16 17 15 14 16 14 16 15 15 15 15 16 16 16 16 16 17 17 17 17 17 17 17 17 17 17 16 16 15 15 14 14 14 14 13 13
13 14 14 14 15 15 15 17 17 17 16 14 14 14 14 15 14 14 14 16 16 16 15 15 16 16 16 16 16 16 16 16 15 15 15 14 14 14 13 13 13 13 13 12
14 15 15 15 16 16 16 15 15 12 13 13 14 13 14 14 14 14 13 15 16 15 15 15 15 15 15 15 15 15 15 14 14 14 14 13 13 13 13 13 13 12 12 12
14 15 15 15 15 16 15 13 13 13 12 13 14 14 15 14 14 14 13 15 16 16 16 15 15 15 15 14 14 14 13 13 13 13 13 12 12 12 12 11 11 11 11 11
13 13 15 15 15 14 14 13 13 13 13 13 15 14 15 14 15 16 16 16 16 16 16 16 15 15 14 13 13 13 13 12 12 12 12 12 12 12 11 11 11 10 10 10
13 13 14 15 15 14 13 13 13 13 14 14 14 14 15 12 12 13 14 15 15 16 16 15 15 14 13 12 12 12 12 12 12 12 12 11 11 11 10 10 10 10 9 9
13 12 14 15 15 15 15 13 12 13 14 14 14 15 15 14 13 12 12 14 15 16 15 14 13 12 12 12 11 11 11 11 11 11 11 10 10 10 10 9 9 9 8 8
13 12 13 14 14 14 14 14 13 12 12 13 14 14 14 14 13 12 12 15 16 15 14 13 12 12 11 11 11 11 11 11 11 11 10 10 10 9 9 8 8 8 7 7
13 11 11 13 14 14 14 14 13 13 13 12 12 13 14 13 13 13 14 15 15 15 14 12 12 11 11 11 10 10 10 10 10 10 9 9 9 8 8 8 7 7 7 6
13 12 11 13 13 13 14 14 13 12 12 11 12 14 14 13 13 15 15 15 15 14 12 12 11 11 10 10 10 10 9 9 9 8 8 8 7 7 6 6 6 6 6 5
13 12 13 13 13 12 13 13 13 12 12 12 12 14 15 15 15 14 15 15 14 12 12 11 11 10 10 9 9 9 9 8 8 8 7 6 6 5 5 5 5 5 4 4
13 13 13 14 14 13 14 13 13 12 12 12 12 13 14 14 13 14 15 14 12 12 11 11 10 9 9 8 8 8 8 7 7 6 5 5 5 4 4 4 4 4 3 3
12 13 13 13 13 14 13 13 12 12 12 12 12 12 13 14 14 13 13 12 11 11 10 10 9 8 8 8 8 7 7 6 5 5 4 4 4 4 3 3 3 2 2 2
11 12 12 12 12 13 13 12 12 12 12 12 12 13 13 13 12 12 12 12 11 11 10 9 8 8 7 7 6 6 5 4 4 4 3 3 3 3 2 1 1 1 1 0
10 10 9 10 12 12 13 12 12 12 13 12 12 12 11 11 10 12 12 12 11 10 9 8 7 7 6 6 5 4 3 3 3 3 3 2 2 1 1 0 0 -0 -1 -1
9 9 8 8 10 10 11 12 13 13 12 11 12 11 11 10 10 10 11 11 11 9 8 7 6 5 4 4 4 3 3 3 2 2 2 1 0 -0 -0 -1 -1 -2 -2 -2
8 8 7 8 9 9 12 13 13 13 11 11 11 11 11 10 8 8 9 9 8 7 6 6 5 4 4 3 3 2 2 2 2 1 1 -0 -1 -1 -2 -2 -2 -3 -3 -3
7 7 7 7 8 8 10 11 12 11 10 9 10 10 10 9 8 9 9 8 7 6 6 5 4 4 3 2 2 2 1 1 0 -0 -1 -1 -2 -2 -3 -3 -3 -4 -4 -4
7 6 6 6 7 8 10 11 10 9 9 9 10 10 10 9 9 9 8 8 7 6 5 5 4 3 2 1 1 1 0 -1 -1 -1 -1 -2 -2 -3 -4 -4 -4 -4 -5 -5
7 7 7 7 8 9 10 11 10 10 9 9 9 9 9 8 8 8 7 6 5 5 4 3 3 1 0 0 -0 -0 -1 -1 -2 -2 -2 -2 -3 -4 -4 -5 -5 -5 -6 -7
7 8 7 7 8 9 9 10 9 9 9 9 8 8 8 7 7 7 6 5 4 3 2 1 0 -0 -0 -0 -1 -1 -2 -2 -2 -3 -3 -3 -4 -4 -5 -5 -6 -6 -7 -8
6 7 6 7 7 8 8 8 8 8 8 8 7 7 7 6 6 6 5 4 2 1 0 -1 -1 -1 -1 -1 -1 -2 -2 -3 -3 -3 -3 -4 -4 -5 -6 -6 -6 -7 -8 -8
4 6 6 6 7 7 7 8 8 7 7 7 6 6 5 5 4 4 3 2 1 -0 -1 -1 -1 -1 -1 -1 -2 -2 -3 -3 -4 -4 -4 -5 -5 -6 -7 -7 -7 -7 -8 -9
Wind_Speed
11 9 13 14 12 8 6 3 7 9 8 8 9 10 12 5 6 9 7 7 7 5 4 7 9 10 9 11 10 9 8 3 4 4 5 5 6 6 5 7 7 8 9 10
11 16 14 11 10 8 6 7 9 10 5 3 5 7 7 2 7 8 9 8 6 6 7 10 10 10 11 11 10 10 10 9 2 3 3 2 2 3 5 5 6 7 8 8
11 10 13 11 8 9 9 9 10 7 6 5 1 7 2 2 3 5 6 6 6 7 8 9 10 10 11 12 11 10 11 11 9 5 3 3 3 2 3 3 4 6 7 8
7 9 13 12 10 9 9 10 10 3 2 5 0 4 5 5 4 5 6 6 7 7 8 7 8 9 9 9 9 10 11 11 11 10 8 7 4 3 3 3 4 6 6 8
9 12 14 13 10 11 9 5 3 1 1 3 2 3 7 5 7 8 7 8 8 8 8 7 7 7 8 9 9 10 11 11 11 10 9 8 7 4 4 4 6 7 7 7
3 7 11 10 7 8 6 6 7 6 4 3 7 7 7 8 11 10 8 8 9 8 7 6 5 7 8 8 9 9 10 11 10 11 10 10 10 9 8 8 9 8 6 6
4 4 5 6 7 4 6 6 2 2 1 7 5 5 9 10 10 13 13 11 9 9 8 7 6 6 7 8 8 8 9 10 10 11 11 10 9 9 8 7 7 7 6 5
8 8 8 6 8 8 7 9 7 7 6 5 2 7 8 7 6 10 11 11 9 9 7 7 7 5 4 7 8 8 9 10 10 10 9 9 8 6 6 6 6 6 6 6
8 6 1 2 4 10 8 6 6 5 2 3 6 7 7 7 10 12 11 10 10 9 8 8 6 5 4 7 8 8 9 9 9 9 9 9 9 9 8 8 8 7 8 9
8 7 4 3 6 3 5 8 6 4 4 5 6 5 4 3 8 10 11 11 9 8 7 7 5 4 6 7 7 8 9 8 8 9 9 8 8 9 8 8 10 10 10 11
5 7 4 4 6 8 5 4 4 4 4 5 4 6 5 9 11 12 12 11 10 9 8 7 4 5 8 7 7 8 8 8 9 9 8 8 8 8 9 9 9 10 9 11
5 6 5 2 1 4 6 7 8 5 4 4 3 7 6 3 9 10 11 10 8 8 7 6 7 8 7 7 7 7 7 8 8 7 7 8 8 9 10 10 11 11 11 12
6 7 7 3 1 1 4 5 6 5 5 5 4 7 5 3 5 6 7 8 7 8 7 8 8 8 7 6 6 7 7 7 7 7 8 8 9 9 10 10 11 12 13 14
4 5 6 9 7 7 6 6 7 6 5 6 7 6 3 2 3 4 7 9 7 8 9 8 8 7 6 6 6 6 6 7 7 7 7 7 8 9 9 10 12 13 14 15
5 5 4 3 3 5 5 8 9 8 7 8 7 6 8 7 7 7 8 7 9 9 9 9 8 6 5 5 5 6 6 6 7 7 7 7 8 9 10 11 12 13 13 15
4 5 3 3 3 1 3 7 7 7 5 6 6 9 6 6 4 2 4 9 10 9 9 8 7 6 5 5 4 4 5 5 6 6 7 8 9 10 11 12 12 14 14 15
3 4 4 1 3 4 6 7 8 6 6 7 7 7 4 4 4 2 4 8 9 9 9 7 6 5 4 4 3 3 3 4 5 6 7 9 10 11 12 13 14 14 15 15
5 5 4 3 2 5 6 3 6 6 3 5 5 5 4 2 4 4 1 8 9 9 8 7 5 4 3 2 2 2 4 5 6 6 7 9 10 11 12 12 13 13 13 14
4 6 5 4 3 7 7 3 3 6 3 2 3 3 2 3 3 4 4 3 7 7 7 6 4 3 3 2 2 3 4 6 7 8 8 9 10 11 12 13 13 13 14 14
7 6 5 4 4 6 5 3 3 3 3 3 3 4 2 1 4 4 3 6 8 7 6 5 4 3 3 2 3 5 6 7 8 8 8 9 9 10 12 13 12 12 13 14
4 4 4 4 4 7 7 5 1 3 4 2 4 5 5 2 4 3 7 6 7 7 6 5 4 3 2 3 5 6 6 7 8 8 8 8 9 9 11 9 10 13 14 14
7 6 6 6 5 8 4 3 5 5 3 4 5 4 3 3 4 7 8 9 8 6 5 5 4 2 3 4 5 5 7 7 8 8 9 9 9 10 11 11 11 12 12 13
7 8 7 9 7 3 2 4 5 6 5 3 3 2 4 6 7 7 6 6 5 5 5 4 3 2 3 4 3 5 7 8 8 8 9 10 10 9 9 10 12 11 10 10
4 3 4 4 4 3 4 5 3 5 7 7 5 3 3 5 7 8 6 6 5 5 4 3 1 2 4 4 5 6 8 8 8 9 10 9 9 9 8 8 8 10 10 11
6 2 3 3 3 4 5 5 6 6 4 4 4 4 5 5 5 5 4 4 4 5 3 1 2 4 5 6 7 7 7 8 9 9 9 9 8 9 9 9 9 11 9 12
5 7 6 6 4 4 4 2 3 4 5 7 7 5 1 1 2 3 3 4 5 4 2 2 3 4 5 6 8 8 8 8 8 9 9 8 8 8 9 10 13 18 18 23
Wind_Direction
178 181 197 193 191 195 189 228 284 277 255 186 205 235 269 295 114 119 121 113 100 81 43 28 20 10 13 19 23 24 24 333 193 180 194 207 225 230 232 233 233 229 227 224
176 203 195 189 196 210 233 272 287 291 301 200 229 267 287 177 157 151 145 136 115 78 39 24 17 14 18 22 21 24 20 14 14 183 168 173 207 229 239 252 249 239 235 232
192 182 181 185 187 202 231 232 249 268 331 358 288 315 330 38 127 132 136 131 102 76 54 27 16 14 20 24 23 32 28 26 27 45 96 86 67 17 357 311 281 265 251 248
179 164 174 190 200 186 233 226 217 233 22 304 125 273 254 207 203 171 149 118 94 73 59 42 27 22 20 16 21 31 33 35 32 35 52 59 53 18 330 309 302 302 288 277
179 165 175 194 205 184 208 191 170 117 96 317 289 209 266 204 216 209 187 148 117 92 80 63 43 36 27 21 25 24 31 34 32 40 50 55 47 20 344 348 354 349 340 335
149 162 174 189 192 183 154 76 50 44 69 283 228 188 262 206 208 198 189 168 142 123 111 95 63 46 34 27 26 24 30 28 22 29 33 37 32 20 14 6 1 355 345 346
123 139 173 152 131 123 110 103 69 315 293 250 238 199 247 227 204 178 173 171 162 152 138 121 98 68 45 34 28 27 34 30 23 30 31 27 25 24 21 9 1 0 351 342
143 174 195 172 160 159 159 146 170 199 218 265 252 230 254 289 183 144 147 159 162 158 152 145 135 108 64 37 31 31 42 39 31 33 29 27 27 28 21 13 6 358 347 332
148 175 125 132 131 137 144 187 186 163 236 259 266 274 308 40 115 130 144 156 169 174 171 154 137 121 74 45 43 51 58 48 34 28 24 21 18 18 12 7 4 357 349 344
131 133 162 140 92 79 149 152 129 163 192 238 279 274 270 166 156 153 163 174 186 184 173 157 150 119 76 74 65 57 57 50 37 31 27 22 15 13 8 6 1 352 345 340
115 121 116 126 169 170 157 165 158 158 185 182 251 274 238 212 186 174 184 192 192 182 174 168 144 96 92 79 66 59 49 42 32 24 19 16 11 7 4 0 351 342 337 333
126 111 113 146 238 183 187 186 157 171 215 181 195 270 292 238 186 180 193 200 191 174 163 138 112 103 93 81 71 60 45 36 24 16 16 15 13 9 5 357 349 345 342 339
131 112 106 91 340 256 214 196 170 149 139 168 186 263 318 50 152 187 189 193 182 158 135 118 110 104 96 86 72 57 40 26 15 14 13 15 11 4 356 349 346 346 343 340
108 107 153 178 196 171 187 195 171 150 177 208 217 237 270 230 176 186 206 205 169 146 139 128 116 108 97 84 69 54 35 23 18 12 9 10 1 352 346 345 344 343 341 338
84 103 108 119 128 149 179 191 188 190 194 204 232 230 242 247 242 241 227 177 148 153 147 134 128 120 104 86 66 50 30 15 8 2 3 357 350 348 346 344 340 338 336 334
62 107 98 53 27 94 245 240 225 222 214 237 273 279 253 249 258 241 169 156 162 159 143 136 131 122 109 97 80 53 23 1 358 359 356 351 352 349 346 341 337 335 334 331
75 108 112 189 332 10 273 241 208 201 195 192 229 254 323 345 29 34 195 174 166 156 147 141 133 129 124 112 87 47 5 357 0 359 355 355 351 345 340 337 335 333 330 327
113 98 109 119 74 242 230 286 198 176 192 220 249 298 330 62 86 13 329 171 161 150 139 134 141 143 131 101 60 29 12 5 359 356 352 350 345 338 333 331 328 325 325 323
101 123 116 126 201 277 305 325 144 150 108 34 90 48 77 122 76 348 350 129 140 134 138 148 155 146 121 78 45 30 12 3 359 351 344 339 335 331 330 327 323 320 321 318
58 87 111 134 181 235 241 245 244 115 111 5 34 21 341 343 330 282 166 112 116 127 141 142 130 114 89 41 34 30 8 357 343 331 323 321 320 321 320 316 313 315 316 313
94 89 122 156 224 265 258 266 76 168 216 357 44 32 18 320 254 179 137 135 144 148 143 132 123 101 59 34 33 15 350 329 313 309 309 311 312 313 311 310 313 313 314 314
163 156 173 160 199 252 281 91 130 163 124 76 55 44 72 143 142 147 161 168 166 154 143 138 123 85 41 28 21 346 317 303 302 304 306 308 308 310 317 312 311 310 312 314
193 188 183 189 203 207 30 116 133 134 139 166 177 199 169 179 194 191 190 179 164 151 140 121 100 43 354 352 347 313 301 304 307 308 307 307 306 301 302 306 310 313 313 314
265 188 174 234 255 160 142 129 140 167 186 203 207 216 223 229 217 197 180 171 156 137 124 108 77 306 308 310 303 292 297 305 308 306 304 303 304 306 304 305 306 309 311 311
237 183 169 249 262 113 152 206 219 222 226 227 232 232 240 245 223 190 173 159 145 135 132 166 261 284 290 294 297 300 302 305 303 300 300 303 304 307 312 310 306 307 299 306
213 190 189 232 219 165 219 250 194 199 222 231 231 235 302 339 216 163 162 152 145 147 168 260 284 288 290 296 298 297 294 293 297 307 310 309 308 308 308 310 311 308 310 313
Height
1493 1500 1501 1503 1505 1507 1509 1511 1513 1505 1492 1492 1493 1491 1485 1482 1482 1483 1484 1484 1484 1484 1483 1482 1480 1479 1476 1474 1473 1472 1472 1472 1473 1475 1477 1478 1478 1478 1479 1479 1479 1479 1478 1476
1495 1494 1494 1497 1501 1505 1508 1512 1511 1501 1490 1489 1489 1489 1484 1481 1482 1482 1483 1484 1484 1483 1483 1482 1481 1480 1478 1476 1474 1473 1472 1471 1471 1472 1473 1475 1476 1476 1477 1477 1476 1475 1473 1471
1484 1486 1491 1496 1500 1505 1507 1511 1509 1502 1494 1490 1491 1493 1486 1485 1483 1484 1483 1483 1483 1483 1483 1483 1482 1481 1479 1477 1475 1474 1473 1472 1471 1471 1471 1472 1472 1473 1473 1473 1471 1470 1468 1465
1483 1483 1488 1494 1497 1501 1506 1498 1499 1497 1502 1504 1498 1508 1491 1487 1485 1484 1483 1483 1483 1484 1484 1484 1483 1482 1481 1479 1478 1477 1476 1474 1472 1471 1471 1471 1470 1470 1469 1468 1466 1464 1462 1460
1478 1479 1486 1491 1491 1494 1496 1491 1493 1495 1500 1505 1503 1506 1496 1488 1487 1484 1482 1482 1484 1485 1485 1485 1485 1484 1483 1482 1481 1480 1478 1476 1474 1473 1472 1471 1470 1469 1467 1466 1464 1461 1459 1457
1474 1476 1480 1483 1484 1487 1488 1493 1498 1505 1509 1514 1502 1507 1495 1487 1479 1479 1480 1481 1483 1485 1486 1486 1486 1485 1484 1483 1482 1481 1479 1478 1476 1475 1473 1471 1470 1468 1467 1464 1462 1460 1457 1455
1476 1476 1476 1478 1484 1486 1489 1503 1515 1516 1519 1513 1495 1498 1487 1470 1465 1468 1474 1478 1482 1484 1485 1486 1486 1486 1485 1484 1483 1481 1480 1479 1477 1475 1474 1472 1471 1469 1466 1464 1461 1458 1455 1452
1480 1485 1477 1475 1478 1485 1490 1497 1512 1517 1514 1504 1490 1493 1474 1465 1461 1466 1471 1476 1479 1482 1484 1485 1485 1485 1484 1483 1482 1481 1480 1479 1478 1476 1474 1473 1471 1468 1466 1463 1460 1457 1453 1449
1475 1481 1474 1472 1473 1477 1490 1494 1494 1503 1500 1502 1496 1484 1469 1465 1464 1467 1472 1475 1477 1480 1482 1483 1483 1484 1484 1483 1482 1481 1480 1479 1477 1476 1474 1472 1469 1466 1464 1461 1458 1454 1450 1446
1463 1477 1474 1473 1473 1476 1479 1485 1497 1502 1505 1506 1495 1486 1478 1471 1471 1470 1472 1474 1476 1478 1480 1482 1483 1483 1483 1482 1481 1481 1480 1478 1476 1474 1472 1470 1467 1464 1461 1458 1454 1451 1446 1442
1458 1472 1478 1475 1477 1480 1483 1486 1489 1497 1500 1504 1500 1489 1468 1467 1467 1468 1470 1471 1473 1476 1478 1480 1482 1481 1481 1480 1480 1479 1478 1477 1475 1472 1469 1467 1464 1461 1458 1454 1450 1445 1441 1436
1455 1469 1480 1477 1474 1474 1477 1479 1486 1495 1496 1499 1501 1491 1463 1462 1464 1465 1467 1469 1472 1475 1478 1479 1479 1479 1478 1478 1478 1477 1476 1474 1472 1469 1467 1464 1460 1457 1453 1448 1444 1440 1435 1430
1452 1465 1481 1484 1484 1478 1476 1475 1478 1484 1490 1497 1498 1486 1464 1463 1464 1466 1467 1470 1472 1474 1475 1476 1476 1476 1476 1476 1475 1474 1473 1471 1469 1466 1463 1460 1456 1452 1448 1444 1439 1434 1430 1425
1448 1460 1468 1476 1474 1473 1475 1475 1476 1481 1489 1491 1488 1477 1469 1466 1466 1468 1468 1468 1470 1472 1473 1473 1473 1473 1473 1474 1474 1473 1471 1469 1467 1464 1460 1456 1452 1448 1444 1440 1435 1430 1425 1420
1449 1460 1461 1463 1463 1466 1468 1471 1473 1476 1477 1482 1477 1476 1470 1468 1467 1465 1464 1464 1467 1470 1470 1470 1471 1471 1472 1472 1471 1470 1469 1467 1464 1460 1457 1452 1448 1444 1440 1436 1431 1426 1421 1416
1453 1460 1463 1466 1466 1467 1469 1469 1471 1472 1472 1474 1474 1471 1463 1463 1462 1462 1462 1463 1465 1467 1468 1469 1470 1470 1470 1469 1469 1468 1466 1463 1460 1457 1453 1449 1445 1441 1436 1432 1427 1423 1418 1413
1458 1462 1469 1473 1471 1467 1471 1465 1467 1467 1467 1468 1471 1467 1462 1461 1461 1462 1462 1463 1464 1465 1466 1468 1468 1469 1469 1469 1467 1465 1462 1459 1456 1453 1449 1445 1441 1437 1433 1429 1424 1419 1414 1409
1460 1467 1474 1476 1473 1478 1465 1459 1459 1462 1463 1464 1464 1464 1462 1462 1462 1462 1462 1463 1463 1464 1465 1467 1468 1469 1468 1466 1464 1461 1459 1456 1453 1450 1446 1441 1437 1432 1429 1425 1420 1416 1410 1405
1459 1466 1476 1481 1479 1474 1465 1458 1457 1460 1464 1464 1463 1462 1462 1462 1462 1462 1462 1462 1462 1463 1465 1466 1467 1467 1465 1463 1460 1458 1455 1453 1449 1446 1442 1438 1433 1428 1424 1420 1416 1411 1406 1400
1464 1466 1476 1481 1480 1479 1464 1456 1455 1457 1465 1465 1463 1463 1463 1462 1466 1464 1462 1461 1461 1463 1464 1465 1465 1464 1462 1459 1456 1454 1452 1449 1445 1442 1438 1434 1430 1425 1421 1417 1412 1407 1401 1395
1470 1472 1477 1479 1481 1473 1460 1455 1455 1466 1466 1464 1462 1462 1462 1462 1463 1461 1460 1460 1460 1462 1462 1462 1461 1460 1458 1455 1453 1450 1448 1445 1441 1438 1434 1430 1426 1422 1417 1412 1408 1402 1396 1389
1468 1474 1476 1479 1481 1475 1456 1454 1459 1462 1462 1461 1461 1462 1461 1461 1460 1459 1458 1458 1458 1459 1459 1458 1457 1455 1453 1451 1449 1447 1444 1441 1437 1433 1429 1425 1422 1417 1412 1407 1402 1397 1390 1383
1461 1460 1462 1464 1463 1457 1454 1455 1457 1458 1460 1460 1460 1460 1460 1459 1458 1457 1456 1456 1456 1456 1456 1455 1453 1452 1450 1449 1447 1444 1440 1437 1433 1429 1424 1420 1416 1412 1407 1402 1396 1390 1385 1379
1454 1453 1455 1456 1454 1454 1454 1455 1457 1458 1458 1457 1457 1458 1458 1457 1456 1455 1454 1453 1453 1453 1452 1451 1450 1449 1448 1446 1444 1440 1436 1432 1428 1424 1420 1415 1411 1406 1402 1397 1392 1386 1380 1375
1452 1452 1454 1454 1453 1453 1456 1455 1456 1455 1455 1455 1455 1455 1455 1454 1453 1452 1451 1451 1450 1450 1449 1448 1448 1447 1445 1442 1439 1436 1433 1428 1424 1419 1415 1410 1406 1401 1396 1391 1387 1381 1376 1373
1447 1449 1451 1452 1449 1451 1453 1452 1452 1453 1453 1453 1452 1452 1451 1450 1449 1449 1448 1448 1447 1446 1446 1445 1444 1442 1440 1437 1434 1431 1428 1423 1418 1413 1409 1405 1401 1396 1391 1385 1379 1374 1371 1366